Showing default

SCATSAT 1, 41790

Orbit data source: Space-Track

SCATSAT 1, 41790 is a payload satellite owned by ISRO (IN) in SSO that was launched on Mon, 26 Sep 2016 UTC via a PSLV launch vehicle from the Sirharikota (SRI). Payload-class satellites include a variety of spacecraft equipped with specific instruments for various scientific and technological missions. These include communications satellites like Starlink; space stations such as the ISS; scientific satellites like the Hubble; Earth observation satellites from companies like Planet Labs, Umbra, and HawkEye 360; GPS; miniature CubeSats for education and research; and military/defense satellites.

Loading next visibility...
Identifier
41790, 2016-059H
Orbit
SSO
Country
Flag of ININ / IND
Related business
Manufacturer
ISRO SAC/Banga
Mission
Operational Civil Earth Obs Sci
Bus & Motor
SSB-2, Unknown motor
Mass
370 kg wet, ~350 kg dry
Launch date (UTC)
2016-09-26 (9 years ago)
Launch vehicle
PSLV
Launch site
Sirharikota (SRI)
Object type
Payload
Rocket body
Debris
Shape & HBR
Box + 2 Pan, 2.0 m
Radar Cross Section
4.015 m², Large (>1 m²)

Expand to show TLE details & history
Last TLE update: 8 hours ago

TLE from 8 hours ago
0 SCATSAT 1
1 41790U 16059H   25299.90162285  .00002093  00000-0  28619-3 0  9995
2 41790  98.1524 355.9777 0054154 279.6012  79.9082 14.78691487 67105
Epoch: 2025-10-26T21:38Z
TLE epoch observation values (Epoch: 2025-10-26T21:38:20.214Z)
Latitude
-0.00005°
Longitude
-4.11768°
Altitude
630.014 km
Speed
7.547 km/s
True Right ascension
23h 43m 54s
True Declination
0° 00' 00"
Sunlit
Object was in full shadow at epoch
Visualization orbit readout
Latitude
Unknown
Longitude
Unknown
Altitude
Unknown
Speed
Unknown
Apparent Right ascension
Unknown
Apparent Declination
Unknown
Sunlit
N/A
Visualization observer readout
Local Sidereal Time
01:18:13
Azimuth
Unknown
Elevation
Unknown
Doppler factor
Unknown
Orbital elements
Apogee altitude
668.466 km
Perigee altitude
592.557 km
Semi-major axis
7,008.648 km
Eccentricity
0.00542
Inclination
98.1524°
RAAN
355.9777°
Arg. of periapsis
279.6012°
True anomaly
80.51987°
Mean anomaly
79.9082°
Eccentric anomaly
80.21396°
Mean motion
3.69906 °/min
Orbital period
97.32 mins
BSTAR
0.00028619
Loading maneuver chart data...
Computing Atmospheric mass density...
Loading historical data...
Loading historical data...
Loading historical data...
Loading historical data...
Loading historical data...
Loading historical data...
Loading historical data...

Documentation

Showing up to 5 results
|